Retour au catalogue

HULIANWANG DIGUI-15

ActifCommunicationsLEO
NORAD 62975·PAYLOAD·🇨🇳 China

Lancé Feb 11, 2025 depuis Wenchang Space Launch Site

Loading…

Prochains Passages (prochaines 24 heures)

TLE

FraisSource: Space-Track

Époque: Sep 14, 2026, 12:45 UTC

1 62975U 25030E   26257.53181991 -.00000092  00000-0  68694-4 0  9997
2 62975  50.0020 275.3068 0000356  35.6486 324.4410 13.29327015 77741

Suivez HULIANWANG DIGUI-15 en temps réel avec AllMySat

Download on the App Store